Wind_Speed
30 29 30 29 29 29 30 30 31 31 31 32 31 31 32 32 32 32 33 33 33 33 33 33 34 35 35 35 36 37 38 39 39 39 39 39 39 39 40 41 41 41 40 40
29 29 29 29 28 27 28 29 30 30 30 30 31 31 32 31 31 31 31 31 32 33 33 32 33 34 35 36 36 36 36 37 38 38 38 38 39 39 40 40 41 40 40 40
29 28 28 28 26 26 26 27 27 28 29 29 30 30 31 31 31 30 30 31 31 31 31 32 33 33 34 34 35 36 36 36 37 37 38 38 38 38 39 39 40 40 40 40
28 27 27 26 25 26 25 26 27 27 27 28 28 28 29 29 29 29 29 30 31 31 31 31 32 32 33 34 36 36 37 37 37 38 38 38 38 38 38 39 39 39 40 40
27 26 25 23 24 25 25 25 26 26 28 28 28 28 28 28 28 28 29 29 29 30 30 30 31 32 33 34 35 35 36 37 37 36 36 36 37 37 38 38 38 39 39 39
25 24 23 22 22 23 24 25 25 25 26 27 27 28 27 28 28 28 29 30 30 30 29 30 30 31 32 32 33 34 34 35 35 35 35 36 36 36 37 37 38 38 38 39
23 23 22 21 21 22 23 23 23 24 24 25 25 26 27 27 28 28 28 29 30 30 29 30 30 30 30 31 32 33 33 34 34 35 36 36 36 36 36 36 37 38 39 39
24 23 22 21 21 22 22 23 23 23 24 24 25 25 26 27 28 28 28 28 29 29 30 30 30 30 30 31 31 32 32 33 34 35 35 36 36 36 36 36 37 38 39 39
24 23 22 22 22 22 22 23 24 24 24 24 24 24 24 24 25 26 27 27 28 29 30 30 30 31 31 31 31 31 32 32 33 34 34 34 35 35 35 36 36 37 38 39
23 22 22 22 22 22 23 23 24 24 24 24 24 24 24 23 23 23 24 25 26 27 28 29 29 30 30 30 30 30 30 31 31 31 32 32 33 34 34 35 35 36 36 36
22 22 22 22 23 23 24 24 24 24 24 23 23 23 23 23 23 23 23 23 24 25 25 26 27 28 29 29 29 29 29 30 30 31 31 31 32 33 34 35 35 35 35 36
21 21 22 22 22 22 22 22 22 22 23 23 23 23 23 22 23 23 23 24 24 24 25 26 27 28 28 28 29 29 29 30 30 31 31 32 32 33 33 34 34 34 35 35
20 20 20 21 21 21 21 21 21 21 22 23 24 24 24 23 24 24 24 25 25 25 25 26 26 27 28 28 29 29 30 30 30 30 31 31 31 32 32 33 33 33 33 33
19 19 20 21 21 21 22 21 21 21 22 22 23 23 23 23 23 24 24 25 25 25 25 26 26 26 27 28 29 29 29 30 30 30 30 31 31 31 32 32 33 33 34 34
19 20 20 21 22 22 22 22 22 22 22 22 21 22 22 22 22 23 23 24 25 25 26 26 27 27 27 28 28 28 29 29 29 29 29 30 30 30 31 32 32 33 34 34
20 21 22 22 22 22 22 22 21 21 21 21 21 21 21 21 22 23 23 24 24 24 25 26 27 27 28 28 28 29 29 29 29 29 30 30 30 30 31 31 31 32 33 34
21 21 22 22 22 21 21 22 21 21 20 20 20 19 20 20 21 22 23 23 24 24 25 26 27 27 28 29 29 29 29 29 30 30 30 30 30 30 30 31 31 31 32 33
21 21 22 21 21 21 22 22 22 21 20 20 19 19 19 20 20 21 22 22 23 24 25 26 27 28 29 29 29 29 29 29 30 30 30 30 30 30 30 31 31 31 31 32
21 21 22 21 21 21 21 21 22 21 21 21 21 21 21 22 22 22 23 23 23 24 24 25 26 27 28 29 28 28 29 29 29 29 29 30 30 30 30 30 30 31 31 32
21 22 22 21 21 21 21 21 22 22 22 22 22 22 22 23 23 23 23 24 24 24 24 25 25 26 27 27 28 28 28 28 28 28 29 29 29 29 29 29 30 30 30 30
22 22 22 22 21 21 22 22 22 22 22 23 23 23 23 23 23 23 23 24 24 24 24 25 25 25 26 26 26 27 27 27 27 27 27 27 27 28 28 28 28 29 29 29
22 22 22 22 22 22 22 22 22 22 21 21 22 22 22 22 22 23 23 23 24 24 24 24 24 24 24 25 26 26 26 26 26 26 27 27 27 27 27 27 28 28 28 28
22 22 22 21 21 21 21 21 21 20 20 20 20 21 21 22 21 21 21 22 23 23 23 23 23 23 23 24 25 25 26 26 26 27 26 26 26 26 26 27 27 27 27 27
23 22 21 21 21 21 20 20 20 20 20 20 20 20 20 20 20 20 21 21 21 21 22 22 22 22 23 23 24 24 25 25 26 26 26 26 26 26 26 26 26 26 26 26
23 22 21 21 20 20 20 20 20 20 20 20 20 20 19 19 19 19 20 20 20 20 21 21 21 22 22 22 22 23 24 25 25 25 26 26 26 26 26 26 26 26 25 25
23 22 21 20 20 20 20 21 21 21 20 20 20 20 20 19 19 19 19 19 19 20 20 20 20 21 21 21 21 22 23 24 24 25 25 25 25 25 25 25 25 25 25 24
22 22 21 21 21 21 21 21 21 20 20 20 19 19 19 19 19 19 19 18 19 19 19 19 19 19 19 20 20 21 22 23 23 24 24 24 24 24 24 24 24 24 24 23
Wind_Direction
292 289 285 281 277 274 271 271 269 268 266 264 264 263 262 261 259 258 257 256 254 252 250 249 249 249 249 249 249 249 248 247 248 249 249 250 251 252 253 253 254 254 256 257
292 290 286 282 279 276 273 270 268 267 267 266 265 262 261 260 258 256 255 254 254 252 250 249 249 249 249 248 249 250 250 250 250 251 251 251 251 252 254 255 255 256 257 257
293 291 287 284 281 277 275 272 270 268 268 267 266 264 263 261 259 257 255 254 254 252 250 249 249 248 247 247 248 248 248 250 252 251 251 252 253 254 254 255 255 256 256 257
294 290 286 284 280 277 275 274 270 269 268 267 266 265 264 262 259 255 255 254 253 252 251 251 250 248 248 247 247 248 248 250 251 251 252 252 254 254 255 255 255 256 257 257
296 291 288 285 281 277 275 274 272 269 268 268 265 264 262 262 260 256 254 253 252 252 252 252 251 249 249 249 248 248 248 250 251 252 252 253 253 255 255 255 256 256 257 258
294 291 288 286 283 280 277 276 275 272 270 269 267 265 262 260 259 257 255 253 252 252 252 252 252 251 250 251 250 249 249 250 251 251 252 253 254 255 256 256 257 257 257 259
292 290 288 286 284 282 279 280 279 276 273 270 268 267 263 259 258 256 254 254 253 252 251 252 252 252 252 252 252 251 251 252 252 252 253 254 255 256 256 256 257 257 258 259
291 288 288 289 286 283 282 281 281 279 277 273 270 268 266 263 260 257 254 254 253 253 252 251 252 252 253 253 252 251 251 253 253 253 254 255 256 257 257 258 258 259 260 261
289 288 287 288 287 285 284 283 282 280 278 276 274 271 268 264 261 258 255 254 253 253 252 251 252 252 252 253 254 254 253 253 253 253 254 255 256 257 259 260 260 261 262 262
290 289 288 288 288 285 285 284 283 282 280 277 276 273 268 263 260 258 257 255 253 252 252 252 252 252 253 254 254 255 254 253 253 253 255 256 257 258 259 260 262 263 263 263
290 290 288 288 288 288 287 284 283 282 280 279 278 275 270 264 260 259 258 256 254 254 252 252 253 253 254 253 253 254 255 256 256 257 257 257 258 259 260 261 262 264 264 264
292 290 289 288 288 289 289 288 286 284 282 279 278 276 272 267 263 261 259 256 256 254 254 255 255 253 253 253 253 254 255 257 259 259 259 259 260 261 262 262 263 264 264 264
292 292 291 291 290 290 291 290 287 286 284 281 278 276 272 268 264 261 259 258 258 257 255 255 255 254 254 254 255 256 256 258 259 260 260 261 261 262 263 263 264 264 265 264
292 293 293 294 292 290 290 290 289 288 286 284 281 276 271 267 264 260 260 261 261 259 258 257 257 257 256 256 256 256 257 259 260 260 260 261 261 262 263 264 265 264 264 265
296 295 295 295 293 291 290 289 288 288 287 284 281 277 272 267 263 261 261 262 262 261 260 259 259 259 259 258 258 259 259 259 259 259 259 260 261 262 264 265 265 265 264 265
295 296 296 296 295 294 291 289 288 289 287 283 279 275 271 268 264 262 262 262 263 262 262 261 261 260 260 260 260 260 260 259 258 258 259 261 262 263 264 265 265 266 266 266
295 295 296 297 296 294 291 288 287 288 287 282 278 275 273 271 268 266 265 264 263 263 263 263 262 260 261 261 261 261 260 259 259 260 260 261 262 264 264 265 265 266 266 267
298 298 298 298 295 292 291 289 288 288 286 282 279 276 275 275 273 271 269 268 267 265 265 264 264 263 263 262 262 260 259 260 260 261 262 262 263 263 264 264 265 266 267 268
301 301 301 300 295 292 291 289 287 286 283 280 279 277 276 275 273 272 270 270 269 268 268 268 266 265 263 261 260 260 260 259 260 261 262 263 264 264 264 264 265 267 268 270
302 302 303 300 295 293 292 289 288 286 284 281 280 280 279 277 275 272 270 270 270 269 269 268 267 265 263 261 260 259 259 258 259 260 262 264 264 265 265 266 266 267 269 271
303 303 302 300 297 294 294 293 291 289 286 284 284 282 280 279 277 275 273 272 272 271 270 270 268 266 263 261 259 258 257 258 259 260 262 263 264 265 265 265 266 267 269 271
303 303 302 301 300 297 296 294 292 291 289 288 287 285 282 281 280 279 278 276 274 272 271 271 269 267 263 261 259 259 258 259 260 262 263 264 264 265 265 266 267 269 271 273
305 304 302 302 301 300 298 295 293 293 292 291 289 288 286 284 282 282 281 279 277 274 272 271 270 268 266 263 262 260 260 261 262 263 263 264 265 266 267 267 268 270 272 274
308 307 304 303 302 301 300 297 295 294 293 292 291 290 289 286 285 284 284 282 279 276 274 273 270 268 267 265 263 262 262 263 263 263 264 265 266 266 267 267 269 270 273 275
308 307 305 305 304 303 301 298 297 296 294 292 291 291 290 288 287 286 285 283 282 279 276 273 270 269 268 267 266 265 265 264 264 264 265 266 266 266 266 267 269 271 273 274
309 307 305 306 306 305 304 301 299 297 295 293 292 292 291 290 289 288 286 285 284 282 278 275 272 271 269 268 269 268 267 267 266 266 266 265 265 265 265 266 268 270 272 272
310 307 305 306 305 305 304 303 301 299 296 294 293 292 291 291 291 289 288 287 285 282 280 277 275 272 271 271 271 271 270 268 266 265 264 263 264 264 265 267 268 269 270 271
Height
5575 5573 5570 5569 5568 5567 5565 5564 5563 5564 5564 5565 5564 5564 5565 5565 5566 5567 5568 5569 5571 5572 5574 5576 5578 5580 5582 5585 5586 5588 5590 5592 5594 5596 5599 5601 5603 5605 5607 5609 5611 5613 5615 5617
5567 5564 5561 5560 5559 5557 5556 5555 5554 5554 5555 5555 5554 5554 5555 5556 5557 5557 5559 5560 5561 5562 5564 5566 5568 5570 5572 5574 5577 5578 5580 5582 5584 5586 5588 5590 5592 5594 5597 5598 5600 5602 5604 5606
5558 5556 5552 5551 5551 5549 5547 5546 5545 5545 5546 5545 5545 5545 5546 5546 5547 5548 5549 5550 5552 5553 5554 5556 5558 5560 5562 5565 5567 5568 5570 5572 5574 5576 5578 5580 5582 5584 5586 5588 5589 5591 5593 5594
5549 5548 5545 5546 5542 5540 5539 5538 5537 5536 5536 5536 5536 5536 5536 5537 5537 5538 5540 5541 5542 5544 5545 5547 5548 5550 5552 5554 5556 5558 5560 5562 5564 5566 5568 5569 5571 5573 5575 5577 5578 5580 5581 5583
5541 5538 5536 5536 5534 5533 5532 5531 5529 5528 5528 5527 5527 5527 5528 5528 5528 5529 5531 5532 5533 5535 5536 5538 5539 5540 5543 5544 5546 5548 5550 5551 5553 5555 5557 5559 5561 5562 5564 5566 5567 5569 5570 5571
5534 5531 5529 5530 5527 5525 5524 5523 5522 5521 5519 5519 5518 5519 5520 5520 5520 5521 5522 5523 5524 5525 5527 5529 5530 5531 5533 5535 5537 5538 5540 5541 5543 5545 5547 5548 5550 5552 5553 5555 5556 5558 5559 5560
5527 5524 5522 5522 5519 5518 5518 5517 5514 5513 5512 5511 5510 5510 5511 5511 5511 5512 5513 5513 5515 5516 5518 5519 5521 5522 5524 5526 5527 5528 5530 5531 5533 5535 5536 5538 5540 5541 5543 5544 5546 5547 5548 5549
5520 5518 5518 5514 5513 5512 5511 5508 5506 5505 5504 5503 5502 5502 5501 5501 5502 5503 5504 5505 5506 5507 5509 5510 5512 5514 5515 5517 5518 5519 5520 5522 5523 5525 5526 5528 5529 5531 5532 5533 5534 5535 5536 5537
5514 5513 5510 5507 5505 5504 5502 5501 5499 5498 5497 5496 5495 5494 5493 5493 5494 5494 5495 5496 5497 5499 5500 5501 5503 5505 5506 5508 5509 5510 5511 5512 5513 5515 5516 5518 5519 5520 5521 5522 5523 5524 5525 5526
5506 5504 5502 5500 5498 5497 5495 5494 5492 5491 5489 5488 5487 5486 5486 5485 5486 5486 5487 5488 5489 5490 5491 5493 5494 5496 5497 5499 5500 5501 5502 5503 5504 5505 5506 5508 5509 5510 5511 5512 5512 5513 5513 5514
5500 5498 5496 5494 5492 5490 5488 5486 5485 5483 5482 5481 5480 5479 5478 5478 5478 5478 5479 5480 5481 5482 5483 5484 5486 5487 5488 5490 5491 5492 5493 5494 5495 5496 5497 5498 5499 5500 5500 5501 5501 5502 5502 5502
5493 5492 5489 5488 5485 5483 5481 5480 5478 5476 5475 5473 5472 5472 5471 5471 5471 5471 5472 5473 5473 5474 5476 5477 5478 5479 5480 5481 5482 5483 5484 5485 5486 5486 5487 5488 5488 5489 5489 5490 5491 5491 5491 5491
5487 5485 5483 5481 5479 5477 5475 5473 5471 5469 5468 5466 5465 5464 5463 5463 5463 5463 5464 5465 5466 5466 5467 5468 5469 5470 5471 5472 5473 5474 5475 5476 5476 5477 5477 5478 5478 5479 5480 5480 5480 5480 5480 5481
5480 5478 5476 5474 5472 5470 5468 5466 5464 5462 5461 5459 5457 5456 5455 5455 5455 5456 5456 5457 5458 5458 5459 5460 5461 5462 5462 5463 5464 5465 5466 5466 5467 5467 5468 5468 5469 5469 5470 5470 5470 5470 5470 5471
5474 5472 5470 5468 5466 5464 5461 5459 5457 5456 5454 5452 5450 5449 5448 5448 5448 5448 5449 5449 5450 5450 5451 5452 5452 5453 5454 5454 5455 5456 5456 5457 5457 5458 5458 5459 5459 5460 5460 5460 5460 5460 5460 5460
5468 5466 5464 5461 5459 5457 5454 5452 5451 5449 5447 5445 5443 5442 5441 5440 5441 5441 5441 5442 5442 5442 5443 5443 5444 5444 5445 5445 5446 5446 5447 5447 5448 5449 5449 5450 5450 5450 5450 5450 5450 5450 5450 5450
5462 5460 5457 5455 5452 5450 5448 5446 5444 5442 5440 5438 5437 5435 5435 5434 5434 5434 5434 5434 5434 5434 5434 5435 5435 5435 5436 5436 5437 5437 5437 5438 5439 5439 5440 5440 5440 5441 5440 5440 5440 5440 5440 5439
5456 5453 5451 5448 5445 5443 5441 5439 5437 5435 5433 5432 5430 5429 5428 5428 5427 5427 5426 5426 5426 5426 5426 5426 5426 5426 5426 5427 5427 5428 5428 5429 5429 5430 5430 5430 5431 5431 5431 5431 5431 5430 5430 5429
5449 5447 5444 5441 5439 5436 5434 5432 5430 5428 5427 5425 5424 5423 5422 5421 5420 5419 5419 5418 5418 5418 5417 5417 5417 5417 5417 5417 5417 5418 5419 5419 5420 5420 5420 5421 5421 5421 5421 5421 5421 5421 5420 5420
5443 5440 5438 5435 5432 5430 5427 5425 5423 5421 5419 5418 5417 5415 5414 5413 5412 5411 5411 5410 5409 5409 5409 5408 5408 5408 5408 5408 5408 5409 5409 5410 5410 5411 5411 5411 5411 5412 5412 5412 5411 5411 5411 5410
5437 5434 5431 5428 5425 5423 5420 5418 5416 5414 5412 5411 5409 5408 5406 5405 5404 5403 5402 5401 5401 5400 5400 5399 5399 5399 5399 5399 5399 5399 5400 5401 5401 5402 5402 5402 5402 5402 5402 5402 5402 5402 5401 5400
5431 5428 5425 5422 5419 5416 5414 5411 5409 5407 5405 5403 5402 5400 5398 5397 5396 5395 5393 5393 5392 5391 5391 5390 5390 5390 5390 5390 5390 5391 5391 5392 5392 5393 5393 5393 5393 5393 5393 5393 5393 5393 5392 5391
5424 5421 5418 5415 5412 5410 5407 5405 5402 5400 5398 5396 5395 5393 5391 5390 5388 5387 5386 5384 5383 5383 5382 5381 5381 5381 5381 5381 5381 5382 5382 5383 5384 5384 5384 5385 5385 5385 5385 5384 5384 5384 5383 5382
5418 5415 5412 5409 5406 5404 5401 5398 5396 5394 5392 5390 5388 5386 5384 5383 5381 5379 5378 5377 5376 5375 5374 5373 5373 5373 5373 5373 5373 5373 5374 5374 5375 5375 5375 5376 5376 5376 5376 5375 5375 5375 5374 5373
5412 5409 5406 5403 5400 5398 5395 5392 5390 5388 5385 5383 5381 5379 5378 5376 5374 5373 5371 5370 5368 5367 5366 5365 5365 5365 5365 5365 5365 5365 5365 5366 5366 5366 5366 5366 5367 5367 5367 5367 5366 5366 5365 5365
5406 5403 5400 5397 5394 5392 5389 5386 5384 5382 5379 5377 5375 5373 5371 5369 5368 5366 5364 5363 5361 5360 5359 5358 5357 5357 5357 5357 5357 5356 5356 5357 5357 5357 5357 5357 5358 5358 5358 5358 5357 5357 5357 5356
5400 5397 5394 5391 5388 5386 5383 5380 5378 5375 5373 5371 5369 5367 5365 5363 5361 5359 5358 5356 5355 5353 5352 5351 5350 5350 5349 5349 5349 5348 5348 5348 5348 5348 5348 5348 5349 5349 5349 5349 5349 5348 5348 5348